Location: Freistadt
(48.5112°N, 14.5013°E)
Time: 06:11:12
(UTC+02:00)

CUBEBUG 2 - Pass Details

Date: 10 April 2023
Orbit: 577 x 686 km, 97.8° (Epoch: 29 May)

Event Time Altitude Azimuth Distance (km) Brightness Sun altitude
Rises 02:05:02 0° 33° (NNE) 3,031 ? -32.1°
Reaches altitude 10° 02:09:16 10° 70° (ENE) 2,083 ? -31.9°
Maximum altitude 02:10:22 11° 85° (E) 2,020 ? -31.8°
Enters shadow 02:10:39 11° 88° (E) 2,021 ? -31.8°
